TimeCDT,TemperatureF,Dew PointF,Humidity,Sea Level PressureIn,VisibilityMPH,Wind Direction,Wind SpeedMPH,Gust SpeedMPH,PrecipitationIn,Events,Conditions,WindDirDegrees,DateUTC
12:53 AM,72.0,62.1,71,29.78,10.0,SSE,16.1,24.2,N/A,,Clear,150,2012-10-24 05:53:00
1:53 AM,71.1,61.0,70,29.77,10.0,SSE,16.1,-,N/A,,Clear,160,2012-10-24 06:53:00
2:53 AM,69.1,61.0,75,29.76,10.0,SSE,12.7,-,N/A,,Clear,160,2012-10-24 07:53:00
3:53 AM,68.0,61.0,78,29.75,10.0,SSE,10.4,-,N/A,,Clear,150,2012-10-24 08:53:00
4:53 AM,66.9,60.1,79,29.75,10.0,SSE,12.7,-,N/A,,Clear,160,2012-10-24 09:53:00
5:53 AM,66.0,60.1,81,29.76,10.0,SE,9.2,-,N/A,,Clear,140,2012-10-24 10:53:00
6:53 AM,64.9,60.1,84,29.78,10.0,SSE,9.2,-,N/A,,Clear,150,2012-10-24 11:53:00
7:53 AM,64.0,60.1,87,29.80,10.0,SE,8.1,-,N/A,,Clear,140,2012-10-24 12:53:00
8:53 AM,64.9,60.1,84,29.81,10.0,SE,8.1,-,N/A,,Clear,140,2012-10-24 13:53:00
9:53 AM,70.0,61.0,73,29.82,10.0,SE,8.1,-,N/A,,Clear,130,2012-10-24 14:53:00
10:53 AM,77.0,62.1,60,29.80,10.0,SE,9.2,-,N/A,,Clear,130,2012-10-24 15:53:00
11:53 AM,89.1,55.0,31,29.76,10.0,SW,8.1,19.6,N/A,,Clear,220,2012-10-24 16:53:00
12:53 PM,91.0,48.9,23,29.73,10.0,SW,12.7,-,N/A,,Clear,220,2012-10-24 17:53:00
1:53 PM,93.0,46.9,20,29.69,10.0,SW,16.1,21.9,N/A,,Clear,220,2012-10-24 18:53:00
2:53 PM,93.0,48.0,21,29.65,10.0,South,17.3,25.3,N/A,,Clear,190,2012-10-24 19:53:00
3:53 PM,93.0,46.9,20,29.64,10.0,SSW,15.0,23.0,N/A,,Clear,200,2012-10-24 20:53:00
4:53 PM,91.9,48.9,23,29.63,10.0,South,17.3,28.8,N/A,,Clear,190,2012-10-24 21:53:00
5:53 PM,86.0,57.0,37,29.64,10.0,South,23.0,31.1,N/A,,Clear,170,2012-10-24 22:53:00
6:53 PM,82.0,59.0,45,29.66,10.0,SSE,20.7,31.1,N/A,,Clear,160,2012-10-24 23:53:00
7:53 PM,77.0,63.0,62,29.68,10.0,SSE,20.7,28.8,N/A,,Clear,150,2012-10-25 00:53:00
8:53 PM,73.9,63.0,68,29.70,10.0,SSE,21.9,28.8,N/A,,Partly Cloudy,160,2012-10-25 01:53:00
9:53 PM,72.0,63.0,73,29.72,10.0,SSE,20.7,26.5,N/A,,Clear,160,2012-10-25 02:53:00
10:53 PM,72.0,63.0,73,29.73,10.0,South,17.3,-,N/A,,Clear,170,2012-10-25 03:53:00
11:53 PM,71.1,63.0,75,29.70,10.0,South,12.7,-,N/A,,Clear,170,2012-10-25 04:53:00